FW8807 Weather Reports


time (UTC)temp
C
wind
direction
speed
KPH
gust
KPH
rain 1hr
cm
rain 24hr
cm
rain mn
cm
humidity
%
barometer
mb
20260510071018 17 0.0 3.2 0.00 0.00 0.00 66 1029.8
20260510070018 17 135 1.6 4.8 0.00 0.00 0.00 66 1029.8
20260510065019 17 135 1.6 4.8 0.00 0.00 0.00 67 1029.7
20260510064018 17 0.0 3.2 0.00 0.00 0.00 65 1029.6
20260510063018 17 135 1.6 6.4 0.00 0.00 0.00 65 1029.6
20260510062018 17 135 1.6 4.8 0.00 0.00 0.00 65 1029.5
20260510061018 17 0.0 3.2 0.00 0.00 0.00 66 1029.5
20260510060018 18 135 1.6 6.4 0.00 0.00 0.00 65 1029.6
20260510055018 18 0.0 4.8 0.00 0.00 0.00 64 1029.5
20260510054018 18 135 1.6 4.8 0.00 0.00 0.00 63 1029.6
20260510053018 19 135 1.6 6.4 0.00 0.00 0.00 63 1029.5
20260510052020 18 113 1.6 3.2 0.00 0.00 0.00 66 1029.5
20260510051038 18 0.0 4.8 0.00 0.00 0.00 66 1029.5
20260510050039 18 0.0 3.2 0.00 0.00 0.00 66 1029.5
20260510045039 17 0.0 3.2 0.00 0.00 0.00 66 1029.5
20260510044040 17 113 1.6 4.8 0.00 0.00 0.00 66 1029.6
20260510043017 17 0.0 3.2 0.00 0.00 0.00 65 1029.7
20260510042018 17 113 1.6 4.8 0.00 0.00 0.00 66 1029.7
20260510041018 18 113 1.6 3.2 0.00 0.00 0.00 65 1029.6
20260510040018 18 0.0 3.2 0.00 0.00 0.00 66 1029.7
20260510035017 18 113 3.2 4.8 0.00 0.00 0.00 66 1029.9
20260510034017 17 113 1.6 4.8 0.00 0.00 0.00 67 1030.0
20260510033018 17 0.0 3.2 0.00 0.00 0.00 67 1030.1
20260510032018 17 113 1.6 6.4 0.00 0.00 0.00 67 1030.0
20260510031018 17 0.0 6.4 0.00 0.00 0.00 68 1030.1
20260510030018 17 113 1.6 4.8 0.00 0.00 0.00 70 1030.2
20260510025018 17 113 1.6 4.8 0.00 0.00 0.00 70 1030.4
20260510024019 17 0.0 3.2 0.00 0.00 0.00 70 1030.6
20260510023040 16 0.0 1.6 0.00 0.00 0.00 71 1030.9
20260510022017 16 113 1.6 4.8 0.00 0.03 0.00 71 1031.0
20260510021018 16 0.0 3.2 0.00 0.03 0.00 71 1031.2
20260510020018 16 0.0 3.2 0.00 0.03 0.00 71 1031.2
20260510015017 16 0.0 0.0 0.00 0.03 0.00 72 1031.4
20260510014018 16 0.0 1.6 0.00 0.03 0.00 73 1031.4
20260510013058 16 113 1.6 3.2 0.00 0.03 0.00 72 1031.3
20260510012019 15 0.0 1.6 0.00 0.03 0.00 73 1031.4
20260510011017 15 0.0 1.6 0.00 0.03 0.00 74 1031.4
20260510010018 15 0.0 1.6 0.00 0.03 0.00 74 1031.5
20260510005017 15 0.0 1.6 0.00 0.03 0.00 74 1031.5
20260510004017 15 0.0 1.6 0.00 0.03 0.00 75 1031.5
20260510003017 15 0.0 1.6 0.00 0.03 0.00 77 1031.3
20260510002017 15 0.0 1.6 0.00 0.03 0.00 77 1031.5
20260510001017 14 0.0 1.6 0.00 0.03 0.00 78 1031.5
20260510000017 14 0.0 1.6 0.00 0.03 0.00 78 1031.5
20260509235017 14 113 1.6 3.2 0.00 0.03 0.00 79 1031.5
20260509234018 14 0.0 1.6 0.00 0.03 0.00 80 1031.6
20260509233017 14 0.0 3.2 0.00 0.03 0.00 81 1031.5
20260509232017 13 135 1.6 3.2 0.00 0.03 0.00 82 1031.6
20260509231039 13 135 1.6 6.4 0.00 0.03 0.00 83 1031.4
20260509230017 13 135 3.2 6.4 0.00 0.03 0.00 84 1031.4
20260509225017 13 0 3.2 6.4 0.00 0.03 0.00 85 1031.3
20260509224039 13 135 1.6 6.4 0.00 0.03 0.00 86 1031.2
20260509223017 12 158 3.2 11.3 0.00 0.03 0.00 87 1031.1
20260509222038 12 158 4.8 14.5 0.00 0.03 0.00 89 1030.9
20260509221038 12 135 3.2 12.9 0.00 0.03 0.00 90 1030.8
20260509220017 11 135 3.2 6.4 0.00 0.03 0.00 90 1030.7
20260509215040 11 0.0 4.8 0.00 0.03 0.00 90 1030.5
20260509214017 11 135 1.6 9.7 0.00 0.03 0.00 91 1030.3
20260509213017 10 0.0 1.6 0.00 0.03 0.00 91 1030.3
20260509212017 10 0.0 4.8 0.00 0.03 0.00 90 1030.2
20260509211017 10 0.0 1.6 0.00 0.03 0.00 90 1030.2
20260509210017 10 0.0 3.2 0.00 0.03 0.00 90 1030.2
20260509205017 10 0.0 3.2 0.00 0.03 0.00 90 1030.2
20260509204018 10 0.0 0.0 0.00 0.03 0.00 90 1029.9
20260509203017 10 0.0 1.6 0.00 0.03 0.00 90 1029.9
20260509202037 10 0.0 0.0 0.00 0.03 0.00 90 1029.7
20260509201017 10 0.0 3.2 0.00 0.03 0.00 89 1029.7
20260509200017 10 0.0 1.6 0.00 0.03 0.00 90 1029.6
20260509195017 10 0.0 3.2 0.00 0.03 0.00 90 1029.6
20260509194017 10 0.0 0.0 0.00 0.03 0.00 89 1029.6
20260509193018 10 0.0 0.0 0.00 0.03 0.00 89 1029.5
20260509192017 10 0.0 3.2 0.00 0.03 0.00 89 1029.5
20260509191017 10 0.0 1.6 0.00 0.03 0.00 89 1029.5
20260509190017 10 0.0 1.6 0.00 0.03 0.00 89 1029.4
20260509185017 11 0.0 3.2 0.00 0.03 0.00 89 1029.2
20260509184017 11 0.0 1.6 0.00 0.03 0.00 89 1029.2
20260509183018 11 0.0 1.6 0.00 0.03 0.00 89 1029.1
20260509182039 11 0.0 0.0 0.00 0.03 0.00 89 1029.1
20260509181017 11 0.0 1.6 0.00 0.03 0.00 89 1029.2
20260509180017 11 0.0 1.6 0.00 0.03 0.00 89 1029.1
20260509175017 11 0.0 3.2 0.00 0.03 0.00 89 1029.1
20260509174017 11 0.0 1.6 0.00 0.03 0.00 89 1029.1
20260509173038 11 203 1.6 6.4 0.00 0.03 0.00 89 1029.1
20260509172017 11 225 1.6 3.2 0.00 0.03 0.00 89 1029.2
20260509171037 11 0.0 3.2 0.00 0.03 0.00 89 1029.2
20260509170017 11 0.0 1.6 0.00 0.03 0.00 89 1029.4
20260509165141 11 0.0 3.2 0.00 0.03 0.00 89 1029.4
20260509164037 12 0.0 0.0 0.00 0.03 0.00 89 1029.4
20260509163017 12 0.0 0.0 0.00 0.03 0.00 88 1029.6
20260509162042 12 0.0 1.6 0.00 0.03 0.00 88 1029.7
20260509161016 12 0.0 1.6 0.00 0.03 0.00 88 1029.7
20260509160017 12 0.0 1.6 0.00 0.03 0.00 88 1029.8
20260509155037 12 0.0 3.2 0.00 0.03 0.00 88 1029.7
20260509154037 11 0.0 1.6 0.00 0.03 0.00 88 1029.7
20260509153017 12 0.0 3.2 0.00 0.03 0.00 87 1029.9
20260509152016 12 0.0 0.0 0.00 0.03 0.00 87 1029.8
20260509151017 12 0.0 0.0 0.00 0.03 0.00 87 1029.8
20260509150017 12 0.0 0.0 0.00 0.03 0.00 87 1029.9
20260509145037 12 0.0 1.6 0.00 0.03 0.00 87 1029.9
20260509144017 12 0.0 3.2 0.00 0.03 0.00 87 1029.9
20260509143016 12 225 1.6 3.2 0.00 0.03 0.03 87 1029.9
20260509142057 12 225 1.6 3.2 0.00 0.03 0.03 87 1030.0
20260509141016 12 0.0 3.2 0.00 0.03 0.03 87 1030.0
20260509140017 12 225 1.6 3.2 0.00 0.03 0.03 87 1029.9
20260509135038 12 225 1.6 3.2 0.00 0.03 0.03 86 1029.9
20260509134016 12 225 1.6 4.8 0.00 0.03 0.03 86 1029.9
20260509133016 12 0.0 1.6 0.00 0.03 0.03 85 1030.0
20260509132017 12 0.0 0.0 0.00 0.03 0.03 86 1030.0
20260509131016 12 0.0 3.2 0.00 0.03 0.03 86 1030.0
20260509130017 12 0.0 1.6 0.00 0.03 0.03 86 1030.1
20260509125016 12 225 1.6 3.2 0.00 0.03 0.03 86 1029.9
20260509124017 12 135 1.6 6.4 0.00 0.03 0.03 87 1030.0
20260509123016 12 0.0 4.8 0.00 0.03 0.03 87 1030.1
20260509122017 12 135 1.6 16.1 0.00 0.03 0.03 87 1030.0
20260509121017 12 0.0 3.2 0.00 0.03 0.03 87 1029.9
20260509120017 12 180 1.6 6.4 0.00 0.03 0.03 87 1029.8
20260509115036 12 180 1.6 3.2 0.00 0.03 0.03 87 1029.8
20260509114018 12 0.0 0.0 0.00 0.03 0.03 87 1029.6
20260509113036 12 0.0 3.2 0.00 0.03 0.03 87 1029.7
20260509112016 12 180 1.6 3.2 0.00 0.03 0.03 87 1029.7
20260509111016 12 180 1.6 4.8 0.00 0.03 0.03 87 1029.8
20260509110016 12 180 1.6 6.4 0.00 0.03 0.03 86 1029.8
20260509105017 12 0.0 3.2 0.00 0.03 0.03 86 1029.7
20260509104016 12 0.0 3.2 0.00 0.03 0.03 86 1029.7
20260509103018 12 0.0 3.2 0.00 0.03 0.03 86 1029.7
20260509102016 12 0.0 3.2 0.00 0.03 0.03 86 1029.7
20260509101017 12 158 1.6 6.4 0.00 0.03 0.03 85 1029.8
20260509100016 13 158 1.6 6.4 0.00 0.03 0.03 86 1029.6
20260509095017 12 180 1.6 6.4 0.00 0.03 0.03 85 1029.6
20260509094017 12 0.0 0.0 0.00 0.03 0.03 85 1029.5
20260509093016 13 0.0 0.0 0.00 0.03 0.03 84 1029.4
20260509092016 13 0.0 1.6 0.00 0.03 0.03 84 1029.5
20260509091016 13 0.0 0.0 0.00 0.03 0.03 83 1029.5
20260509090016 13 0.0 1.6 0.00 0.03 0.03 83 1029.6
20260509085016 13 180 1.6 3.2 0.00 0.03 0.03 82 1029.5
20260509084017 14 0.0 1.6 0.00 0.03 0.03 82 1029.5
20260509083016 15 0.0 1.6 0.00 0.03 0.03 81 1029.4
20260509082017 15 0.0 0.0 0.00 0.03 0.03 81 1029.2
20260509081016 15 0.0 3.2 0.00 0.03 0.03 81 1029.2
20260509080018 15 0.0 3.2 0.00 0.03 0.03 81 1029.1
20260509075020 15 0.0 3.2 0.00 0.03 0.03 82 1029.1
20260509074038 15 180 3.2 9.7 0.00 0.03 0.03 82 1029.2
20260509073058 16 0.0 3.2 0.00 0.03 0.03 83 1029.1
20260509072039 16 0.0 1.6 0.00 0.03 0.03 83 1029.0